Location: Fort Worth, Tx
(32.7431°N, 97.3695°W)
Time: 22:54:21
(UTC-04:00)

Altair - Pass Details

Date: 11 October 2023
Orbit: 1501 x 1682 km, 47.2° (Epoch: 14 September)

Event Time Altitude Azimuth Distance (km) Brightness Sun altitude
Rises 08:17:45 0° 306° (NW) 4,864 9.6 -3.5°
Reaches altitude 10° 08:20:51 10° 306° (NW) 3,895 9.1 -2.8°
Maximum altitude 08:30:54 80° 221° (SW) 1,697 7.8 -0.8°
Drops below altitude 10° 08:41:03 10° 136° (SE) 3,934 10.6 1.4°
Sets 08:44:12 0° 135° (SE) 4,914 11.2 2.0°
